Regional Weather Roundup
Issued by NWS

Home | Current Version | Previous Version | Text Only | Print | Product List | Glossary Off
Versions: 1 2 3 4 5 6 7 8 9 10 11 12 13 14 15 16 17 18 19 20 21 22 23 24 25 26 27 28 29 30 31 32 33 34 35 36 37 38 39 40 41 42 43 44 45 46 47 48 49 50

000
ASUS43 KDTX 311901
RWRMI
MICHIGAN HOURLY REGIONAL WEATHER ROUNDUP
NATIONAL WEATHER SERVICE DETROIT/PONTIAC MI
300 PM EDT THU JUL 31 2014

NOTE: "FAIR" INDICATES FEW OR NO CLOUDS BELOW 12,000 FEET WITH NO
SIGNIFICANT WEATHER AND/OR OBSTRUCTION TO VISIBILITY.

MIZ047>049-052>055-059>063-066>070-074>076-081>083-312000-
SOUTHEAST LOWER MICHIGAN

CITY           SKY/WX    TMP DP  RH WIND       PRES   REMARKS
ALMA           PTSUNNY   74  55  51 NW8       30.00F
ANN ARBOR      PTSUNNY   77  53  43 SW12      30.03F
BAD AXE        PTSUNNY   75  60  58 W8G16     30.00R
CARO           MOSUNNY   77  60  55 W8        29.99S
DETROIT CITY   MOSUNNY   79  55  43 W8G20     30.02S
DETROIT        PTSUNNY   78  57  48 SW12      30.03F
FLINT          MOSUNNY   76  58  53 W9        30.01S
GROSSE ILE     PTSUNNY   77  55  47 W5        30.02F
HILLSDALE      MOSUNNY   78  58  49 W10       30.05S
HOWELL         PTSUNNY   76  55  49 SW12      30.02S

CITY           SKY/WX    TMP DP  RH WIND       PRES   REMARKS
JACKSON        PTSUNNY   75  57  53 SW9       30.03F
LAMBERTVILLE   PTSUNNY   77  52  41 SW7       30.04S
LANSING        PTSUNNY   76  56  49 W14       30.02S
LAPEER         MOCLDY    75  55  50 W10G17    30.01S
MASON          PTSUNNY   76  59  56 W7        30.02S
MONROE         MOSUNNY   79  55  44 W9        30.02F
MT. CLEMENS    MOSUNNY   78  57  47 SW17      30.00F
PONTIAC        MOSUNNY   74  56  53 W10       30.02S
PORT HOPE        N/A     74  53  48 W8        29.98R
PORT HURON     CLOUDY    73  57  56 S9        30.01S
TRI CITIES     MOSUNNY   76  57  51 W9        30.00S
TROY           MOSUNNY   76  55  46 W15       30.03S
SAGINAW HB     PTSUNNY   77  54  44 W8        29.99S
$$
MIZ043>046-050>051-056>058-064>065-071>073-077>080-312000-
SOUTHWEST LOWER MICHIGAN

CITY           SKY/WX    TMP DP  RH WIND       PRES   REMARKS
BATTLE CREEK   MOSUNNY   78  58  49 W15       30.04S
BENTON HARBOR  SUNNY     78  57  48 W14       30.05S
BIG RAPIDS     PTSUNNY   74  55  50 W6        29.99S
COLDWATER      PTSUNNY   80  59  49 W14       30.04S
FREMONT        MOCLDY    78  56  46 W12G17    30.00S
HOLLAND        SUNNY     76  61  59 W10       30.05R
GRAND RAPIDS   MOSUNNY   79  58  48 W17       30.02S
IONIA          FAIR      79  57  46 W8G17     30.01S
KALAMAZOO      PTSUNNY   80  58  46 W10       30.03F
LUDINGTON      SUNNY     69  61  75 SW9       30.02R
MARSHALL       PTSUNNY   75  59  57 MISG      30.03S
MOUNT PLEASANT MOSUNNY   76  55  47 W6        29.99S
MUSKEGON       MOSUNNY   73  59  61 SW10      30.03R
SOUTH HAVEN    SUNNY     74  61  65 W9        30.05R
$$
MIZ016>042-312000-
NORTHERN LOWER MICHIGAN

CITY           SKY/WX    TMP DP  RH WIND       PRES   REMARKS
ALPENA         MOSUNNY   74  50  42 W9        29.94F
BEAVER ISLAND  PTSUNNY   68  60  75 SW12G20   29.95S
BELLAIRE       SUNNY     76  49  39 MISG      29.96S
CADILLAC       PTSUNNY   75  54  47 SW5       29.99S
CHARLEVOIX     SUNNY     74  55  52 W14G20    29.99S
FRANKFORT      SUNNY     71  57  60 W8        30.00R
GAYLORD        SUNNY     73  46  38 W12G22    29.97S
GRAYLING       MOSUNNY   74  46  36 W8        29.99R
HARBOR SPRINGS SUNNY     73  56  54 W8G16     29.95F
HOUGHTON LAKE  PTSUNNY   73  50  44 W7        29.99S
MANISTEE       SUNNY     73  55  53 W9        30.00S
OSCODA         PTSUNNY   76  49  39 W8        29.95S
PELLSTON       SUNNY     75  54  47 W9        29.94F
ROGERS CITY    MOSUNNY   76  53  45 W9G18     29.94S
TRAVERSE CITY  PTSUNNY   78  46  32 W12       29.95S
$$
MIZ007>008-015-312000-
EASTERN UPPER MICHIGAN

CITY           SKY/WX    TMP DP  RH WIND       PRES   REMARKS
KINROSS        CLOUDY    70  55  60 SW7       29.92R
MACKINAC ISLAN MOSUNNY   67  58  71 W10G21    29.93S
NEWBERRY       PTSUNNY   69  58  67 S7        29.92R
S. S. MARIE    PTSUNNY   73  53  49 NW9       29.91R
MUNISING         N/A     67  58  72 NE10      29.93S
$$
MIZ004>006-011>014-085-312000-
CENTRAL UPPER MICHIGAN

CITY           SKY/WX    TMP DP  RH WIND       PRES   REMARKS
MANISTIQUE     CLOUDY    62  58  88 SW9       29.94R
ESCANABA       PTSUNNY   72  57  60 S10       29.92F
MENOMINEE      PTSUNNY   75  54  46 W6        29.93F
SAWYER-GWINN   MOSUNNY   72  54  53 NE9       29.94R
$$
MIZ001>003-009>011-084-312000-
WESTERN UPPER MICHIGAN

CITY           SKY/WX    TMP DP  RH WIND       PRES   REMARKS
IRON MOUNTAIN  MOSUNNY   76  49  38 W8        29.94F
HOUGHTON       SUNNY     71  51  49 NW12      29.94R
COPPER HARBOR    N/A     70  54  56 N14       29.92R
$$

ABBREVIATIONS USED IN REMARKS
   TC - TEMPERATURE IN CELSIUS
  WCI - WIND CHILL INDEX
   HX - HEAT INDEX
  VSB - VISIBILITY




USA.gov is the U.S. government's official web portal to all federal, state and local government web resources and services.